Regional Weather Roundup
Issued by NWS

Home | Current Version | Previous Version | Graphics & Text | Print | Product List | Glossary On
Versions: 1 2 3 4 5 6 7 8 9 10 11 12 13 14 15 16 17 18 19 20 21 22 23 24 25 26 27 28 29 30 31 32 33 34 35 36 37 38 39 40 41 42 43 44 45 46 47 48 49 50
000
ASUS43 KMPX 291001
RWRMN
WEATHER ROUNDUP FOR MINNESOTA
NATIONAL WEATHER SERVICE TWIN CITIES/CHANHASSEN MN
500 AM CDT FRI APR 29 2016


NOTE: "FAIR" INDICATES FEW OR NO CLOUDS BELOW 12,000 FEET WITH NO
SIGNIFICANT WEATHER AND/OR OBSTRUCTIONS TO VISIBILITY. N/A MEANS
CURRENT SKY AND/OR WEATHER CONDITIONS ARE NOT AVAILABLE.

MNZ060>063-068>070-291100-
   Twin Cities Metro

CITY           SKY/WX    TMP DP  RH WIND       PRES   REMARKS
TWIN CITIES    CLOUDY    35  35 100 CALM      30.17R
ST PAUL        CLOUDY    34  34 100 W3        30.18R FOG
CRYSTAL        CLOUDY    36  34  92 CALM      30.15F FOG
BLAINE         CLOUDY    37  37 100 CALM      30.16S FOG
EDEN PRAIRIE   CLOUDY    36  33  89 N5        30.15S FOG
SOUTH ST PAUL  CLOUDY    35  35  98 CALM      30.17R FOG
LAKE ELMO      CLOUDY    34  34 100 CALM      30.17S FOG
$$
MNZ001>005-007-008-013>017-022>024-027-028-291100-
   Northwest Minnesota

CITY           SKY/WX    TMP DP  RH WIND       PRES   REMARKS
BEMIDJI        CLOUDY    29  26  86 CALM      30.16S
HALLOCK        CLOUDY    34  25  69 NE6       30.21R WCI  29
ROSEAU         CLOUDY    34  28  80 N5        30.21S WCI  30
WARROAD        CLEAR     34  30  86 CALM      30.22R
THIEF RVR FALL PTCLDY    39  27  60 NE8       30.19S
CROOKSTON      CLOUDY    39  28  65 E6        30.19R
FOSSTON        CLOUDY    36  27  69 NE3       30.17S
DETROIT LAKES  CLOUDY    37  36  93 CALM      30.17S
MOORHEAD       CLOUDY    37  34  87 SE5       30.16S
PARK RAPIDS    CLOUDY    35  32  88 CALM      30.15S
MAHNOMEN       FAIR      37  28  71 E3        30.16S
$$
MNZ006-009>011-018-025>026-291100-
   North Central Minnesota

CITY           SKY/WX    TMP DP  RH WIND       PRES   REMARKS
BAUDETTE       CLEAR     34  27  75 CALM      30.20R
FLAG ISLAND    CLEAR     39  34  81 NE7       30.22R
INTL FALLS     CLOUDY    34  29  82 N6        30.19R WCI  29
WASKISH        PTCLDY    36  30  80 NE6       30.18R
BIG FORK       CLOUDY    28  27  93 CALM      30.17S
LONGVILLE      PTCLDY    28  27  93 CALM      30.16S
GRAND RAPIDS   CLOUDY    28  21  74 CALM      30.17F
CRANE LAKE     MOCLDY    28  27  93 CALM      30.20R
ORR            PTCLDY    34  25  69 CALM      30.15S
COOK           CLOUDY    28  27  93 CALM      30.17S
WALKER         FAIR      32  24  71 CALM      30.16R
$$
MNZ012-019>021-037-291100-
   Northeast Minnesota

CITY           SKY/WX    TMP DP  RH WIND       PRES   REMARKS
DULUTH         CLEAR     31  25  78 N5        30.15R WCI  26
ELY            CLOUDY    34  30  86 CALM      30.17S
HIBBING        CLOUDY    25  23  92 NW3       30.16S
EVELETH        CLOUDY    32  32 100 CALM      30.17S
DULUTH HARBOR  CLEAR     36  30  80 CALM      30.19S
TWO HARBORS    CLEAR     30  27  86 CALM      30.15R
SILVER BAY     CLEAR     30  27  86 N3        30.15S
GRAND MARAIS     N/A     39  27  62 N6        30.17R
G MARAIS ARPRT CLOUDY    28  21  74 N6        30.15S WCI  22
$$
MNZ029>031-032-039>041-046>048-054>057-064-291100-
   West Central Minnesota

CITY           SKY/WX    TMP DP  RH WIND       PRES   REMARKS
FERGUS FALLS   CLOUDY    37  37 100 CALM      30.16S
WHEATON        PTCLDY    39  37  93 CALM      30.19S
MORRIS         CLOUDY    36  36 100 W3        30.16S FOG
ALEXANDRIA     CLOUDY    37  36  96 N3        30.15F FOG
ELBOW LAKE     FAIR      38  37  98 CALM      30.17R
WADENA         CLOUDY    30  30 100 CALM      30.16R
GLENWOOD       CLOUDY    36  36 100 N5        30.15S
APPLETON       CLOUDY    39  37  93 CALM      30.16F
BENSON         CLOUDY    34  34 100 CALM      30.17S FOG
ORTONVILLE     CLEAR     37  36  93 CALM      30.16F FOG
MADISON        PTCLDY    36  36 100 N3        30.17R FOG
WILLMAR        CLOUDY    39  37  93 W3        30.18S FOG
$$
MNZ033>034-036-042>043-049>051-058-059-291100-
   Central Minnesota

CITY           SKY/WX    TMP DP  RH WIND       PRES   REMARKS
ST CLOUD       CLOUDY    34  33  96 CALM      30.15S FOG
SAUK CENTRE    FAIR      34  34 100 N3        30.16S
PAYNESVILLE    CLOUDY    36  37 100 CALM      30.17R
AITKIN         PTCLDY    30  27  86 CALM      30.15F
PINE RIVER     CLOUDY    28  27  93 CALM      30.20R
BRAINERD       CLOUDY    30  24  78 CALM      30.17R
STAPLES        CLOUDY    34  32  93 CALM      30.16S
LONG PRAIRIE   FAIR      34  34 100 CALM      30.16S
LITTLE FALLS     N/A     32  32 100 CALM      30.16F FOG
LITCHFIELD     CLOUDY    37  37 100 CALM      30.16F FOG
BUFFALO        CLOUDY    36  35  96 CALM      30.17S FOG
MAPLE LAKE     CLOUDY    37  37  99 CALM      30.17R FOG
HUTCHINSON     CLOUDY    35  35 100 CALM      30.17S FOG
$$
MNZ037-044-045-052-053-291100-
   East Central Minnesota

CITY           SKY/WX    TMP DP  RH WIND       PRES   REMARKS
PRINCETON      FOG       34  32  93 CALM      30.16S VSB 1/4
MORA           CLOUDY    32  28  86 CALM      30.18R
CAMBRIDGE      CLOUDY    34  27  75 CALM      30.15S
RUSH CITY      CLOUDY    31  28  89 N3        30.17S
MOOSE LAKE     CLOUDY    30  28  93 CALM      30.15F
HINCKLEY       FAIR      32  32 100 N5        30.16S WCI  27
CLOQUET        CLOUDY    30  25  80 NW5       30.16S WCI  25
MCGREGOR       CLOUDY    32  30  93 CALM      30.17F
$$
MNZ071>073-080-081-089-090-097-098-291100-
   Southwest Minnesota

CITY           SKY/WX    TMP DP  RH WIND       PRES   REMARKS
MONTEVIDEO     CLOUDY    37  37 100 CALM      30.18S
GRANITE FALLS  CLOUDY    40  39  96 N3        30.18S
CANBY          CLOUDY    41  40  98 CALM      30.17R
MARSHALL       MOCLDY    35  35 100 W3        30.16R
REDWOOD FALLS  CLOUDY    37  35  92 CALM      30.15F
OLIVIA         CLOUDY    36  34  93 N7        30.15F
PIPESTONE      CLOUDY    37  36  93 CALM      30.13R
WINDOM         CLOUDY    37  37 100 CALM      30.14R
WORTHINGTON    CLOUDY    38  36  92 N5        30.13S
JACKSON        CLOUDY    37  36  93 NE7       30.13R FOG
TRACY          CLOUDY    36  36  99 CALM      30.16R FOG
SLAYTON        CLOUDY    37  37  99 N3        30.14R
$$
MNZ065>067-074>077-082>085-091>093-291100-
   South Central Minnesota

CITY           SKY/WX    TMP DP  RH WIND       PRES   REMARKS
MANKATO        CLOUDY    39  36  87 N3        30.16R
NEW ULM        CLOUDY    37  36  93 E3        30.16S
ST JAMES       CLOUDY    34  34 100 N3        30.15F
FAIRMONT       CLOUDY    39  30  70 N7        30.13S
GLENCOE        CLOUDY    37  37 100 CALM      30.16S FOG
FARIBAULT      CLEAR     36  34  93 N1        30.16R
OWATONNA       PTCLDY    36  34  93 CALM      30.15R
WASECA         CLOUDY    36  34  93 NW3       30.16S
ALBERT LEA     CLOUDY    39  37  93 N3        30.14R
$$
MNZ078>079-086>088-094>096-291100-
   Southeast Minnesota

CITY           SKY/WX    TMP DP  RH WIND       PRES   REMARKS
ROCHESTER      CLOUDY    37  37 100 N5        30.13S FOG
RED WING       CLEAR     36  34  93 CALM      30.15R
STANTON        CLOUDY    36  34  93 W3        30.15S
DODGE CENTER   CLOUDY    36  36 100 N6        30.14R
WINONA         CLOUDY    39  36  87 N3        30.15R
AUSTIN         CLOUDY    37  34  87 CALM      30.14R
PRESTON        MOCLDY    34  33  95 N5        30.13R FOG     WCI  30
$$
ABBREVIATIONS USED IN REMARKS
   TC - TEMPERATURES IN CELSIUS
  WCI - WIND CHILL INDEX
   HX - HEAT INDEX
  VSB - VISIBILITY
$$




USA.gov is the U.S. government's official web portal to all federal, state and local government web resources and services.